Location: Équennes
(49.7375°N, 1.9622°E)
Time: 14:02:16
(UTC+00:00)

Meteor 1-27 - Visible Passes

Search period start: 25 September 2023 00:00
Search period end: 05 October 2023 00:00
Orbit: 838 x 891 km, 81.3° (Epoch: 24 September)

Date Brightness Start Highest point End Pass type
(mag) Time Alt. Az. Time Alt. Az. Time Alt. Az.
25 Sep 5.2 01:42:06 43° NNE 01:42:06 43° NNE 01:45:56 10° NNE visible
25 Sep 5.8 03:24:24 19° NW 03:24:24 19° NW 03:28:15 10° NNW visible
25 Sep 6.9 23:52:10 12° NE 23:52:10 12° NE 23:52:49 10° NE visible
26 Sep 5.4 01:34:29 39° NNE 01:34:29 39° NNE 01:38:02 10° NNE visible
26 Sep 5.9 03:16:48 19° NW 03:16:48 19° NW 03:20:21 10° NNW visible
26 Sep 6.9 23:44:33 11° NE 23:44:33 11° NE 23:44:55 10° NE visible
27 Sep 5.6 01:26:52 35° NNE 01:26:52 35° NNE 01:30:08 10° NNE visible
27 Sep 5.9 03:09:11 19° NW 03:09:11 19° NW 03:12:27 10° NNW visible
27 Sep 7.0 23:36:55 10° NE 23:36:55 10° NE 23:37:01 10° NE visible
28 Sep 5.8 01:19:14 32° NNE 01:19:14 32° NNE 01:22:14 10° NNE visible
28 Sep 6.0 03:01:32 19° NW 03:01:32 19° NW 03:04:33 10° NNW visible
29 Sep 6.0 01:11:35 29° NNE 01:11:35 29° NNE 01:14:20 10° NNE visible
29 Sep 6.1 02:53:54 18° NW 02:53:54 18° NW 02:56:40 10° NNW visible
30 Sep 6.1 01:03:55 27° NNE 01:03:55 27° NNE 01:06:26 10° NNE visible
30 Sep 6.1 02:46:14 18° NW 02:46:14 18° NW 02:48:46 10° NNW visible
01 Oct 6.2 00:56:15 25° NNE 00:56:15 25° NNE 00:58:32 10° NNE visible
01 Oct 6.2 02:38:34 17° NW 02:38:34 17° NW 02:40:52 10° NNW visible
02 Oct 6.3 00:48:35 23° NNE 00:48:35 23° NNE 00:50:38 10° NNE visible
02 Oct 6.3 02:30:53 17° NNW 02:30:53 17° NNW 02:32:58 10° NNW visible
03 Oct 6.5 00:40:53 21° NNE 00:40:53 21° NNE 00:42:43 10° NNE visible
03 Oct 6.4 02:23:12 16° NNW 02:23:12 16° NNW 02:25:04 10° NNW visible
04 Oct 6.6 00:33:12 20° NNE 00:33:12 20° NNE 00:34:50 10° NNE visible
04 Oct 6.4 02:15:30 15° NNW 02:15:30 15° NNW 02:17:10 10° NNW visible
